Tracking 23752 objects as of 23-Oct-2021
HD Live streaming from Space Station
objects crossing your sky now

DELTA 1 DEB

Track DELTA 1 DEB now!
10-day predictions


NORAD ID: 10227
Int'l Code: 1977-065BE
Perigee: 570.7 km
Apogee: 1,636.6 km
Inclination: 29.0 °
Period: 107.2 minutes
Semi major axis: 7474 km
RCS: 0.265 m2 (medium)
Launch date: July 14, 1977
Source: United States (US)
Launch site: AIR FORCE EASTERN TEST RANGE (AFETR)

Note: This is SATELLITE DEBRIS
aabbcc
Your satellite tracking list
Your tracking list is empty




NASA's NSSDC Master Catalog

Two Line Element Set (TLE):
1 10227U 77065BE  21295.47086824  .00000958  00000-0  30422-3 0  9991
2 10227  28.9563 350.5659 0712985 281.2434  70.8867 13.43433534145331
Source of the keplerian elements: AFSPC